This is the latest recevied weather packets stored in our database for station/object DL2DHM-13. If no packets are shown the sender has not sent any weather packets the latest 10 day(s).
| Time | Temp. | Humidity | Pressure | Rain* | Wind** | Luminosity | Snow |
|---|---|---|---|---|---|---|---|
| 1777857317 | 13.89° C | 77% | 1010.3 hPa | 0 mm | - | 0 W/m² | - |
| 1777853713 | 13.89° C | 79% | 1010.3 hPa | 0 mm | - | 0 W/m² | - |
| 1777850413 | 13.89° C | 81% | 1010.1 hPa | 0 mm | - | 0 W/m² | - |
| 1777848905 | 13.89° C | 82% | 1010.1 hPa | 0 mm | - | 0 W/m² | - |
| 1777848303 | 13.89° C | 80% | 1010.1 hPa | 0 mm | - | 0 W/m² | - |
| 1777847161 | 15° C | 78% | 1010.1 hPa | 0 mm | - | 0 W/m² | - |
| 1777846558 | 15° C | 78% | 1010 hPa | 0 mm | - | 0 W/m² | - |
| 1777842354 | 15.56° C | 78% | 1010.2 hPa | 0 mm | - | 0 W/m² | - |
| 1777842057 | 15.56° C | 77% | 1010.3 hPa | 0 mm | - | 0 W/m² | - |
| 1777840553 | 16.11° C | 75% | 1010.1 hPa | 0 mm | - | 0 W/m² | - |
| 1777836952 | 17.22° C | 69% | 1010 hPa | 0 mm | - | 0 W/m² | - |
| 1777835454 | 17.22° C | 68% | 1009.9 hPa | 0 mm | - | 0 W/m² | - |
| 1777834551 | 17.22° C | 67% | 1009.8 hPa | 0 mm | - | 0 W/m² | - |
| 1777832178 | 17.78° C | 65% | 1009.1 hPa | 0 mm | - | 25 W/m² | - |
| 1777831548 | 18.33° C | 64% | 1008.9 hPa | 0 mm | - | 26 W/m² | - |
| 1777830948 | 18.33° C | 62% | 1008.9 hPa | 0 mm | - | 28 W/m² | - |
| 1777827348 | 20° C | 55% | 1008.8 hPa | 0 mm | - | 51 W/m² | - |
| 1777826744 | 20° C | 54% | 1008.7 hPa | 0 mm | - | 69 W/m² | - |
| 1777825243 | 21.11° C | 51% | 1008.4 hPa | 0 mm | - | 120 W/m² | - |
| 1777823147 | 21.67° C | 48% | 1008.3 hPa | 0 mm | - | 178 W/m² | - |
| 1777819838 | 22.22° C | 42% | 1008.4 hPa | 0 mm | - | 218 W/m² | - |
| 1777819237 | 22.78° C | 41% | 1008.4 hPa | 0 mm | - | 213 W/m² | - |
| 1777815939 | 24.44° C | 37% | 1008.3 hPa | 0 mm | - | 724 W/m² | - |
| 1777812327 | 23.89° C | 38% | 1008.8 hPa | 0 mm | - | 394 W/m² | - |
| 1777811726 | 23.33° C | 38% | 1008.8 hPa | 0 mm | - | 327 W/m² | - |
* Rain latest hour (hover to see other rain measurements)
** Current wind speed in m/s (hover to see current wind gust speed)